GPS BIII-1 (PRN 04) (43873 NORAD) Tracking and Keplerian Element Data

This shows tracking and keplerian element data for the satellite.

Feedback or suggestion? Click here.




ElementValue
Catalog43873
NameGPS BIII-1 (PRN 04)
Epoch Orbit1388
Epoch Day304.78890705
Epoch Year2020
RAAN173.3624
Inclination55.0121
Eccentricity0.0009427
Argument of Perigee201.9165
Mean Anonmoly101.9754
Mean Motion2.00570197
Decay Rate6E-07
L11 43873U 18109A 20304.78890705 .00000060 00000-0 00000-0 0 9993
L22 43873 55.0121 173.3624 0009427 201.9165 101.9754 2.00570197 13881

Live tracking and technical data element details for GPS BIII-1 (PRN 04) (NORAD 43873). GPS BIII-1 (PRN 04) can be tracked NOW for your location showing map with azimuth and elevation plus other details from your city location.

Track the satellite on the map from your city or location and see movement details for azimuth, elevation, latitude, longitude, range, height, and movement on the map or in text.







IsCatalogInMostPopularTable: catalog: 43873, numindb: 856
Update: records affected: 1



GetName: 43873 GPS BIII-1 (PRN 04)

Hit Count: updated at: Sat, 31 Oct 2020 20:07:40 GMT